Weather History for KCKC - July, 2012

Change the Weather History Date:

Tuesday, July 10, 2012

  Actual Average Record
Temperature  
Mean Temperature 60 °F -  
Max Temperature 73 °F 71 °F 82 °F (2005)
Min Temperature 46 °F 51 °F 6 °F (1999)
Degree Days  
Heating Degree Days 6    
Growing Degree Days 10 (Base 50)    
Moisture  
Dew Point 50 °F    
Average Humidity 67    
Maximum Humidity 93    
Minimum Humidity 41    
Precipitation  
Precipitation 0.00 in - - ()
Sea Level Pressure  
Sea Level Pressure 30.18 in    
Wind  
Wind Speed 3 mph (SSW)    
Max Wind Speed 10 mph    
Max Gust Speed -    
Visibility 10 miles    
Events      
Averages and records for this station are not official NWS values.
T = Trace of Precipitation, MM = Missing Value Source: NWS Daily Summary

Daily Weather History Graph

Daily Weather History Graph

Search for Another Location

Airport or City:

Trip Planner

Search our weather history database for the weather conditions in past years. The results will help you decide how hot, cold, wet, or windy it might be!

Date:

Astronomy

Jul. 10, 2012 Rise Set
Actual Time 5:14 AM CDT 8:59 PM CDT
Civil Twilight 4:34 AM CDT 9:39 PM CDT
Nautical Twilight 3:40 AM CDT 10:32 PM CDT
Astronomical Twilight 2:21 AM CDT 11:49 PM CDT
Moon No Moon Rise 1:18 PM CDT (7/10)
Length of Visible Light 17h 04m
Length of Day
15h 45m
Waning Gibbous, 54% of the Moon is Illuminated
Jul 10
Waning Gibbous
Jul 10
Last Quarter
Jul 18
New
Jul 26
First Quarter
Aug 1
Full

Hourly Weather History & Observations

Time (CDT) Temp. Dew Point Humidity Pressure Visibility Wind Dir Wind Speed Gust Speed Precip Events Conditions
12:14 AM 51.8 °F 48.2 °F 88% 30.19 in 10.0 mi NNW 3.5 mph - N/A   Clear
12:33 AM 51.8 °F 48.2 °F 88% 30.18 in 10.0 mi Calm Calm - N/A   Clear
12:54 AM 51.8 °F 48.2 °F 88% 30.18 in 10.0 mi Calm Calm - N/A   Clear
1:13 AM 51.8 °F 48.2 °F 88% 30.18 in 10.0 mi Calm Calm - N/A   Clear
1:34 AM 51.8 °F 48.2 °F 88% 30.18 in 10.0 mi Calm Calm - N/A   Clear
1:54 AM 51.8 °F 48.2 °F 88% 30.18 in 10.0 mi Calm Calm - N/A   Clear
2:13 AM 51.8 °F 48.2 °F 88% 30.18 in 10.0 mi Calm Calm - N/A   Clear
2:34 AM 50.0 °F 46.4 °F 87% 30.18 in 10.0 mi Calm Calm - N/A   Clear
2:54 AM 51.8 °F 48.2 °F 88% 30.18 in 7.0 mi Calm Calm - N/A   Clear
3:13 AM 50.0 °F 46.4 °F 87% 30.19 in 10.0 mi Calm Calm - N/A   Clear
3:33 AM 48.2 °F 44.6 °F 87% 30.18 in 10.0 mi Calm Calm - N/A   Clear
3:54 AM 50.0 °F 46.4 °F 87% 30.19 in 10.0 mi West 3.5 mph - N/A   Clear
4:14 AM 48.2 °F 46.4 °F 93% 30.19 in 10.0 mi West 3.5 mph - N/A   Clear
4:33 AM 48.2 °F 44.6 °F 87% 30.19 in 10.0 mi West 3.5 mph - N/A   Clear
4:54 AM 48.2 °F 44.6 °F 87% 30.19 in 10.0 mi Calm Calm - N/A   Clear
5:14 AM 48.2 °F 44.6 °F 87% 30.20 in 10.0 mi Calm Calm - N/A   Clear
5:33 AM 46.4 °F 44.6 °F 93% 30.20 in 10.0 mi Calm Calm - N/A   Clear
5:54 AM 48.2 °F 46.4 °F 93% 30.21 in 10.0 mi WNW 3.5 mph - N/A   Clear
6:14 AM 51.8 °F 46.4 °F 82% 30.21 in 10.0 mi Calm Calm - N/A   Clear
6:33 AM 53.6 °F 48.2 °F 82% 30.21 in 10.0 mi Calm Calm - N/A   Clear
6:54 AM 57.2 °F 51.8 °F 82% 30.21 in 10.0 mi Calm Calm - N/A   Clear
7:14 AM 60.8 °F 53.6 °F 77% 30.21 in 10.0 mi Calm Calm - N/A   Clear
7:33 AM 64.4 °F 51.8 °F 64% 30.21 in 10.0 mi Calm Calm - N/A   Clear
7:54 AM 66.2 °F 53.6 °F 64% 30.21 in 10.0 mi Calm Calm - N/A   Clear
8:14 AM 68.0 °F 53.6 °F 60% 30.21 in 10.0 mi WSW 3.5 mph - N/A   Clear
8:33 AM 69.8 °F 53.6 °F 56% 30.21 in 10.0 mi SSW 4.6 mph - N/A   Clear
8:54 AM 69.8 °F 53.6 °F 56% 30.22 in 10.0 mi SSW 3.5 mph - N/A   Clear
9:13 AM 69.8 °F 53.6 °F 56% 30.21 in 10.0 mi SSW 4.6 mph - N/A   Clear
9:33 AM 71.6 °F 53.6 °F 53% 30.21 in 10.0 mi SSW 4.6 mph - N/A   Clear
9:54 AM 71.6 °F 53.6 °F 53% 30.21 in 10.0 mi South 4.6 mph - N/A   Clear
10:13 AM 73.4 °F 55.4 °F 53% 30.20 in 10.0 mi Calm Calm - N/A   Clear
10:34 AM 73.4 °F 53.6 °F 50% 30.20 in 10.0 mi South 6.9 mph - N/A   Clear
10:53 AM 73.4 °F 55.4 °F 53% 30.20 in 10.0 mi South 4.6 mph - N/A   Scattered Clouds
11:13 AM 69.8 °F 53.6 °F 56% 30.20 in 10.0 mi South 3.5 mph - N/A   Scattered Clouds
11:34 AM 69.8 °F 55.4 °F 60% 30.20 in 10.0 mi South 5.8 mph - N/A   Mostly Cloudy
11:54 AM 68.0 °F 53.6 °F 60% 30.20 in 10.0 mi South 5.8 mph - N/A   Scattered Clouds
12:13 PM 68.0 °F 53.6 °F 60% 30.20 in 10.0 mi SE 5.8 mph - N/A   Scattered Clouds
12:34 PM 71.6 °F 53.6 °F 53% 30.20 in 10.0 mi SSE 6.9 mph - N/A   Clear
12:54 PM 69.8 °F 53.6 °F 56% 30.19 in 10.0 mi South 3.5 mph - N/A   Clear
1:13 PM 69.8 °F 53.6 °F 56% 30.19 in 10.0 mi SSE 5.8 mph - N/A   Scattered Clouds
1:34 PM 69.8 °F 53.6 °F 56% 30.19 in 10.0 mi SSE 5.8 mph - N/A   Clear
1:54 PM 71.6 °F 53.6 °F 53% 30.18 in 10.0 mi SSW 4.6 mph - N/A   Clear
2:13 PM 73.4 °F 53.6 °F 50% 30.18 in 10.0 mi South 5.8 mph - N/A   Clear
2:34 PM 73.4 °F 51.8 °F 47% 30.18 in 10.0 mi South 9.2 mph - N/A   Clear
2:54 PM 71.6 °F 53.6 °F 53% 30.18 in 10.0 mi South 4.6 mph - N/A   Clear
3:13 PM 73.4 °F 51.8 °F 47% 30.18 in 10.0 mi SSW 9.2 mph - N/A   Clear
3:34 PM 73.4 °F 53.6 °F 50% 30.17 in 10.0 mi SSW 5.8 mph - N/A   Clear
3:53 PM 71.6 °F 50.0 °F 46% 30.17 in 10.0 mi South 6.9 mph - N/A   Clear
4:13 PM 73.4 °F 51.8 °F 47% 30.17 in 10.0 mi South 8.1 mph - N/A   Clear
4:34 PM 73.4 °F 50.0 °F 44% 30.17 in 10.0 mi South 8.1 mph - N/A   Clear
4:54 PM 73.4 °F 50.0 °F 44% 30.16 in 10.0 mi SSW 6.9 mph - N/A   Clear
5:13 PM 73.4 °F 48.2 °F 41% 30.16 in 10.0 mi South 5.8 mph - N/A   Clear
5:34 PM 73.4 °F 48.2 °F 41% 30.16 in 10.0 mi SSW 10.4 mph - N/A   Clear
5:54 PM 71.6 °F 48.2 °F 43% 30.16 in 10.0 mi SSW 5.8 mph - N/A   Clear
6:13 PM 71.6 °F 50.0 °F 46% 30.15 in 10.0 mi SSW 4.6 mph - N/A   Clear
6:34 PM 71.6 °F 48.2 °F 43% 30.15 in 10.0 mi SSW 6.9 mph - N/A   Clear
6:54 PM 69.8 °F 48.2 °F 46% 30.15 in 10.0 mi South 8.1 mph - N/A   Clear
7:13 PM 69.8 °F 48.2 °F 46% 30.14 in 10.0 mi South 4.6 mph - N/A   Scattered Clouds
7:33 PM 69.8 °F 50.0 °F 49% 30.14 in 10.0 mi South 5.8 mph - N/A   Scattered Clouds
7:54 PM 66.2 °F 48.2 °F 52% 30.14 in 10.0 mi South 5.8 mph - N/A   Scattered Clouds
8:13 PM 64.4 °F 51.8 °F 64% 30.14 in 10.0 mi South 3.5 mph - N/A   Clear
8:33 PM 62.6 °F 51.8 °F 68% 30.14 in 10.0 mi SSW 4.6 mph - N/A   Clear
8:54 PM 60.8 °F 51.8 °F 72% 30.14 in 10.0 mi South 4.6 mph - N/A   Clear
9:13 PM 60.8 °F 51.8 °F 72% 30.13 in 10.0 mi SSW 4.6 mph - N/A   Clear
9:33 PM 59.0 °F 51.8 °F 77% 30.14 in 10.0 mi SSW 3.5 mph - N/A   Clear
9:54 PM 59.0 °F 51.8 °F 77% 30.14 in 10.0 mi Calm Calm - N/A   Clear
10:13 PM 57.2 °F 51.8 °F 82% 30.14 in 10.0 mi Calm Calm - N/A   Clear
10:34 PM 55.4 °F 51.8 °F 88% 30.14 in 10.0 mi Calm Calm - N/A   Clear
10:54 PM 55.4 °F 50.0 °F 82% 30.13 in 10.0 mi Calm Calm - N/A   Clear
11:13 PM 55.4 °F 50.0 °F 82% 30.13 in 10.0 mi Calm Calm - N/A   Clear
11:33 PM 53.6 °F 50.0 °F 88% 30.14 in 10.0 mi Calm Calm - N/A   Clear
11:54 PM 53.6 °F 50.0 °F 88% 30.14 in 10.0 mi Calm Calm - N/A   Clear